{"data":{"norad_id":51896,"epoch":"2026-05-25T01:31:48.552096Z","epoch_age_seconds":70281,"freshness":"FRESH","line1":"1 51896U 22022AW  26145.06375639 -.00001429  00000+0 -71682-4 0  9999","line2":"2 51896  53.2159  16.4817 0001390  71.5966 288.5177 15.08849802234822","mean_motion":15.08849802,"eccentricity":0.000139,"inclination_deg":53.2159,"raan_deg":16.4817,"arg_perigee_deg":71.5966,"mean_anomaly_deg":288.5177,"bstar":-7.1682e-5,"rev_number":23482,"period_min":95.436934683045,"perigee_km":538.75184712411,"apogee_km":540.67500954319,"semimajor_km":6917.8504283336,"source":"CELESTRAK","updated_at":"2026-05-25T13:38:16.989776Z"}}